Flag for Germany Weather past 2 weeks in Oranienburg, Brandenburg, Germany

52 °F


Feels Like: 52 °F
Forecast: 45 / 69 °F
Wind: 2 mph from North

Location: Berlin-Tegel

Current Time: Oct 4, 2015 at 7:15:57 AM

Latest Report: Oct 4, 2015 at 6:20 AM

Visibility: 10 mi

Pressure: 29.92 "Hg

Humidity: 88%

Dew point: 48 °F

Location of OranienburgLocation

Historic Weather in Oranienburg — Graph


Oranienburg temperature yesterday

Maximum temperature yesterday: 68 °F (at 2:20 PM)
Minimum temperature yesterday: 41 °F (at 2:50 AM)
Average temperature yesterday: 56 °F

Past Weeks' High & Low Weather Summary

High68 °F (Sep 19, 11:50 AM)100% (Sep 19, 9:50 PM)30.69 "Hg (Sep 19, 9:50 PM)
Low36 °F (Oct 2, 5:50 AM)28% (Oct 2, 4:50 PM)29.62 "Hg (Sep 22, 3:50 PM)
Average55 °F74%30.21 "Hg
* Reported Sep 19 5:20 AM — Oct 4 5:50 AM, Oranienburg, Weather by CustomWeather, © 2015

Note: Actual official high and low records may vary slightly from our data, if they occured in-between our weather recording intervals... More about our weather records


Oranienburg weather history for previous 24 hours

Time TempWeatherWind HumidityBarometerVisibility
5:50 AM
Sun, Oct 4
54 °FClear.2 mph88%29.92 "Hg10 mi
5:20 AM50 °FClear.2 mph94%29.92 "Hg10 mi
4:50 AM52 °FClear.No wind88%29.92 "Hg10 mi
4:20 AM50 °FClear.No wind94%29.92 "Hg10 mi
3:50 AM52 °FClear.1 mph88%29.92 "Hg10 mi
3:20 AM50 °FClear.No wind88%29.92 "Hg10 mi
2:50 AM52 °FClear.2 mph88%29.92 "Hg10 mi
2:20 AM54 °FClear.1 mph82%29.92 "Hg10 mi
1:50 AM54 °FClear.No wind82%29.92 "Hg10 mi
1:20 AM54 °FClear.No wind82%29.92 "Hg10 mi
12:50 AM54 °FClear.No wind82%29.92 "Hg10 mi
12:20 AM54 °FClear.No wind82%29.92 "Hg10 mi
11:20 PM
Sat, Oct 3
55 °FClear.1 mph77%29.92 "Hg10 mi
10:50 PM55 °FClear.No wind77%29.92 "Hg10 mi
10:20 PM57 °FClear.1 mph72%29.92 "Hg10 mi
9:50 PM59 °FClear.2 mph68%29.92 "Hg10 mi
9:20 PM59 °FClear.2 mph68%29.92 "Hg10 mi
8:50 PM59 °FClear.1 mph68%29.92 "Hg10 mi
8:20 PM61 °FClear.2 mph59%29.92 "Hg10 mi
7:50 PM63 °FClear.2 mph59%29.95 "Hg10 mi
7:20 PM63 °FSunny.6 mph59%29.95 "Hg10 mi
6:50 PM63 °FSunny.7 mph56%29.95 "Hg10 mi
6:20 PM64 °FSunny.5 mph56%29.95 "Hg10 mi
5:50 PM66 °FSunny.5 mph49%29.95 "Hg10 mi
5:20 PM66 °FPassing clouds.8 mph49%29.95 "HgN/A
4:50 PM68 °FPassing clouds.9 mph43%29.95 "HgN/A
4:20 PM68 °FPassing clouds.10 mph43%29.95 "HgN/A
3:50 PM68 °FPassing clouds.8 mph40%29.98 "HgN/A
3:20 PM68 °FPassing clouds.8 mph40%29.98 "HgN/A
2:50 PM68 °FPassing clouds.7 mph40%29.98 "HgN/A
2:20 PM68 °FPassing clouds.8 mph38%29.98 "HgN/A
1:50 PM66 °FPassing clouds.8 mph40%29.98 "HgN/A
1:20 PM66 °FPassing clouds.8 mph40%30.01 "HgN/A
12:50 PM64 °FPassing clouds.9 mph43%30.01 "HgN/A
12:20 PM64 °FPassing clouds.9 mph43%30.04 "HgN/A
11:50 AM64 °FPassing clouds.7 mph40%30.04 "HgN/A
11:20 AM63 °FPassing clouds.6 mph39%30.04 "HgN/A
10:50 AM61 °FPassing clouds.5 mph48%30.07 "HgN/A
10:20 AM59 °FPassing clouds.3 mph51%30.07 "HgN/A
9:50 AM55 °FPassing clouds.3 mph59%30.07 "HgN/A
9:20 AM52 °FSunny.2 mph62%30.07 "Hg10 mi
8:50 AM50 °FSunny.2 mph67%30.07 "Hg10 mi
8:20 AM46 °FSunny.2 mph76%30.09 "Hg10 mi
7:50 AM45 °FPassing clouds.3 mph76%30.09 "HgN/A
7:20 AM43 °FPassing clouds.3 mph81%30.09 "HgN/A
Weather by CustomWeather, © 2015

See weather overviewHow to use our weather pages